Wind_Speed
18 16 15 16 16 15 15 14 14 15 16 15 14 16 18 19 19 19 20 19 18 17 15 12 11 10 11 11 14 18 19 18 20 22 21 21 21 19 17 15 13 12 10 9
18 17 18 18 16 16 16 15 15 16 15 15 14 15 18 20 19 19 19 17 16 16 15 12 10 9 9 10 12 16 19 19 19 21 22 22 21 20 18 16 14 13 12 10
18 18 21 18 17 17 16 16 15 16 15 14 15 15 18 19 18 18 16 14 13 14 14 11 8 6 5 7 10 14 18 20 21 22 22 22 21 19 18 16 15 13 12 11
18 21 21 18 17 17 15 16 16 15 15 14 15 16 15 17 17 16 14 13 13 14 13 11 8 5 4 7 10 13 17 20 21 21 22 22 21 19 18 17 15 14 12 11
19 21 21 18 17 17 15 16 16 16 15 13 14 15 14 15 16 15 14 13 12 12 12 10 8 5 4 6 10 12 16 19 20 21 21 22 21 19 18 17 15 14 13 12
20 22 20 18 17 17 16 16 17 16 14 13 13 14 14 15 15 14 13 12 12 11 10 10 8 4 3 4 8 12 14 16 19 21 22 21 20 20 18 17 15 15 14 13
20 21 19 17 17 17 17 17 17 15 14 12 12 13 13 15 14 13 13 12 11 10 9 8 7 4 1 3 7 11 14 16 19 21 21 21 20 19 18 17 15 15 15 14
18 18 18 16 16 17 18 17 17 16 13 11 10 11 13 13 12 12 13 12 11 9 7 6 5 3 1 2 6 9 13 16 17 18 20 20 20 18 18 17 16 16 15 15
17 17 18 18 18 19 19 19 18 17 16 13 11 10 11 11 10 12 12 11 9 8 6 5 3 3 1 1 3 7 11 13 15 16 17 18 18 18 18 17 16 16 16 15
18 18 18 19 20 20 21 20 20 19 19 16 12 11 11 10 10 12 11 10 9 8 6 5 3 2 1 1 1 5 9 12 13 14 15 15 17 17 17 16 16 16 16 16
21 19 19 21 21 21 22 21 21 20 20 18 15 11 12 11 11 11 10 9 9 8 7 6 4 2 1 0 1 4 7 9 11 12 13 14 14 15 15 15 15 16 16 16
24 22 21 23 24 25 25 24 23 22 20 19 18 13 13 12 11 11 10 10 9 8 8 6 5 3 2 2 1 2 5 7 9 10 10 12 13 14 15 15 16 17 17 17
28 27 25 25 26 26 26 26 25 25 24 22 19 16 14 13 12 11 11 10 9 9 9 7 5 4 4 3 3 3 4 6 8 9 10 11 12 13 15 16 17 17 18 19
33 32 30 29 28 28 28 28 27 27 26 24 20 18 16 15 13 12 12 12 11 11 10 9 7 5 6 5 5 5 5 6 7 9 10 11 12 13 15 16 17 18 19 20
37 36 35 34 32 31 30 29 29 29 27 26 23 20 18 17 16 14 13 14 13 13 12 10 9 8 7 7 7 8 8 8 8 9 10 11 12 13 15 17 18 19 20 22
40 41 40 39 37 36 35 32 30 30 29 28 25 22 20 20 18 17 16 16 15 14 13 12 12 11 10 10 10 10 11 11 12 12 12 13 14 15 15 17 18 20 22 23
42 43 43 43 42 42 40 35 34 33 31 31 29 25 24 22 20 19 18 17 16 16 15 14 15 14 13 13 13 12 13 14 14 14 15 16 15 16 17 18 19 22 23 25
42 44 45 45 44 46 41 38 37 36 34 32 30 28 27 25 23 22 21 20 19 18 17 16 17 16 16 16 15 15 15 16 16 17 18 18 18 19 19 20 21 23 25 26
39 41 44 46 46 45 42 40 38 38 36 33 31 28 27 27 26 24 23 23 22 22 20 19 19 19 18 18 18 18 18 17 17 17 18 19 20 21 21 22 23 24 25 27
35 36 39 41 43 43 40 37 37 36 35 32 31 30 29 29 29 27 26 25 24 24 23 20 21 21 21 20 20 20 20 19 19 19 20 20 20 21 22 24 26 27 28 30
30 32 34 35 38 39 36 35 34 35 33 31 31 31 30 30 31 30 30 28 26 26 25 23 22 21 22 22 22 21 20 20 21 22 22 22 23 24 26 27 29 30 31 32
27 28 30 31 33 34 33 32 32 32 31 31 31 31 31 31 31 31 31 30 29 28 27 25 24 22 22 23 23 23 22 22 23 24 24 25 26 28 29 29 31 32 33 34
24 26 27 28 29 29 30 30 30 30 29 29 30 31 32 31 31 32 32 31 29 27 27 26 25 24 24 23 23 24 24 24 25 25 26 27 28 30 31 32 33 34 35 36
21 23 24 24 24 26 26 27 27 27 27 26 27 27 28 28 28 29 30 29 27 26 26 25 24 25 24 24 24 25 26 25 26 27 29 30 31 32 33 35 35 37 38 38
18 19 20 20 20 20 21 22 22 23 22 22 23 24 25 27 27 26 26 26 26 25 25 24 24 24 24 25 25 25 26 27 28 29 30 31 32 33 34 36 36 37 38 39
15 15 16 16 16 16 16 16 18 19 19 20 20 21 22 23 25 25 24 23 22 23 24 23 22 23 23 23 24 25 26 27 29 29 31 32 34 35 36 37 38 39 41 42
Wind_Direction
281 272 261 258 260 262 267 275 284 291 301 311 322 333 336 335 333 331 330 328 326 324 321 314 305 287 266 243 219 211 208 208 209 207 207 208 207 208 210 213 220 225 230 233
275 264 254 255 259 261 265 274 285 294 303 314 325 333 334 333 331 329 330 330 329 328 324 318 309 285 268 235 218 213 206 203 202 202 202 203 204 205 210 214 217 223 227 228
268 255 255 255 258 261 268 277 286 297 305 315 328 338 337 336 332 332 331 331 333 332 327 322 315 293 250 223 211 207 202 200 198 198 199 200 202 206 211 214 218 221 224 225
259 253 254 254 255 261 264 277 288 298 306 318 331 342 344 340 339 338 337 337 338 336 330 324 318 289 245 221 203 204 203 200 197 198 200 199 203 208 210 215 219 221 225 224
251 248 250 250 250 257 264 273 284 293 303 315 330 337 343 340 340 340 337 337 338 338 337 333 322 296 255 218 206 203 200 198 198 198 200 201 204 208 211 217 220 221 222 222
247 246 248 246 246 255 263 270 280 288 299 313 325 329 335 334 337 339 338 336 334 333 338 337 324 306 260 215 202 198 196 198 199 200 201 202 206 208 211 215 217 219 222 221
241 242 244 243 242 250 258 267 277 285 297 313 321 326 333 330 332 337 339 338 335 330 334 336 332 313 269 206 194 192 194 198 199 199 201 204 206 208 211 215 218 221 223 224
237 236 239 238 238 242 251 262 273 283 292 307 317 333 338 333 332 337 338 337 337 332 335 341 348 338 318 202 190 190 194 197 199 200 202 204 207 209 213 217 222 225 227 229
232 230 235 234 232 234 241 252 265 276 286 299 312 323 335 334 331 334 337 338 337 337 330 333 345 353 26 82 181 193 194 192 196 200 203 206 209 213 218 221 225 228 230 232
231 226 227 230 234 237 242 248 256 268 281 293 307 319 326 330 328 326 328 334 334 333 328 326 334 348 348 25 113 185 190 197 200 204 208 209 213 217 220 224 227 231 234 236
238 235 225 228 233 236 243 247 253 262 273 287 300 313 317 319 319 322 323 327 327 328 328 320 314 306 312 92 104 172 186 198 204 208 213 214 217 222 223 225 230 233 237 240
249 247 239 234 236 238 242 246 252 259 268 279 291 304 310 312 310 314 317 320 320 319 320 315 307 286 257 226 209 193 203 208 208 209 215 218 220 224 227 231 235 239 244 247
256 257 255 247 244 245 247 250 254 260 267 275 285 298 301 304 303 303 305 308 312 314 315 307 299 278 259 253 244 235 228 217 217 220 223 225 229 235 239 242 243 246 249 252
259 260 260 258 253 252 253 254 256 260 265 272 280 287 291 295 295 293 294 298 299 304 304 293 286 276 264 263 261 254 246 239 238 237 236 239 241 242 246 248 251 254 255 258
257 260 263 264 262 259 258 257 256 258 263 269 275 280 283 286 289 285 285 289 290 295 294 282 277 271 264 264 264 264 256 252 249 251 252 250 249 251 251 252 255 258 260 263
255 259 262 264 265 264 261 259 258 259 261 266 271 275 279 280 283 281 282 283 281 289 290 277 271 268 262 263 263 263 261 257 256 258 259 260 257 257 258 257 259 261 264 267
253 258 261 263 264 265 263 261 261 261 262 264 267 270 272 274 274 277 278 278 279 280 283 275 269 264 262 263 262 263 262 262 261 261 265 262 263 266 267 264 265 267 269 271
254 255 258 261 263 263 265 262 261 262 262 263 264 265 265 268 268 271 273 273 274 275 278 274 265 260 259 260 263 263 262 262 261 262 265 267 266 270 270 271 272 274 272 273
257 258 259 261 262 263 263 263 263 262 262 261 262 264 263 262 263 265 268 271 271 270 273 270 263 258 258 259 260 260 260 261 265 267 269 269 269 271 273 275 277 278 280 278
259 259 260 260 262 263 263 263 263 262 261 260 260 261 260 260 260 261 264 267 269 268 267 268 265 259 256 257 258 259 261 262 266 269 272 273 274 275 276 278 279 279 280 280
259 259 260 261 262 262 263 263 261 260 261 259 258 256 256 257 256 256 261 263 265 264 263 265 264 259 256 256 257 259 261 262 265 269 273 274 275 276 278 279 280 281 281 280
258 259 259 261 261 262 261 261 259 259 257 255 253 253 255 255 253 253 256 258 262 262 259 258 259 257 256 256 257 258 261 264 267 270 272 275 277 278 279 281 282 283 282 282
257 257 258 259 260 260 258 259 259 257 255 251 249 250 252 252 253 251 252 255 257 259 255 255 256 256 256 256 257 260 264 267 269 272 275 277 279 281 281 282 284 285 285 285
257 258 258 259 258 255 254 255 256 254 252 249 247 248 248 251 251 251 252 250 251 253 252 251 254 256 256 257 259 262 265 269 272 275 278 280 282 283 284 286 287 288 288 287
255 256 256 258 257 254 249 249 249 248 246 244 244 244 245 245 245 250 250 246 246 248 248 251 252 253 256 257 260 264 268 272 275 278 280 282 284 285 287 288 289 289 288 288
251 255 254 252 248 248 247 245 244 241 240 238 238 238 238 239 244 244 243 244 244 246 247 247 248 253 256 259 264 268 271 275 278 280 283 285 287 289 290 290 290 290 290 290
Height
5866 5866 5865 5864 5864 5865 5865 5864 5864 5863 5861 5860 5858 5855 5852 5849 5846 5843 5839 5836 5833 5830 5826 5823 5821 5821 5821 5821 5823 5825 5829 5834 5837 5841 5845 5849 5853 5857 5860 5863 5865 5867 5868 5869
5863 5862 5861 5861 5862 5862 5862 5862 5862 5861 5859 5857 5855 5853 5850 5847 5844 5841 5837 5834 5831 5828 5825 5822 5820 5819 5817 5819 5821 5823 5826 5831 5835 5839 5843 5847 5851 5855 5858 5860 5863 5865 5866 5868
5858 5858 5856 5858 5859 5859 5860 5860 5859 5859 5857 5856 5854 5852 5848 5845 5842 5839 5836 5833 5830 5827 5825 5822 5819 5818 5817 5818 5819 5821 5825 5829 5833 5837 5841 5845 5849 5853 5856 5859 5861 5863 5865 5867
5853 5853 5853 5855 5856 5856 5857 5857 5857 5856 5855 5854 5852 5850 5848 5844 5841 5838 5835 5832 5830 5827 5824 5822 5819 5818 5818 5818 5819 5820 5823 5827 5831 5835 5839 5843 5847 5850 5854 5856 5859 5861 5863 5865
5849 5849 5850 5852 5853 5853 5855 5855 5855 5854 5853 5852 5850 5848 5847 5843 5840 5837 5834 5832 5829 5827 5824 5822 5819 5818 5818 5818 5818 5820 5822 5824 5829 5832 5836 5841 5845 5848 5851 5854 5857 5859 5861 5863
5845 5845 5847 5849 5850 5851 5852 5853 5853 5852 5852 5851 5849 5847 5845 5841 5839 5837 5834 5831 5829 5827 5824 5822 5820 5818 5817 5818 5818 5819 5821 5824 5827 5831 5834 5839 5843 5846 5849 5852 5855 5857 5859 5861
5840 5841 5843 5845 5847 5848 5849 5850 5850 5850 5850 5849 5847 5845 5844 5840 5837 5835 5834 5831 5829 5826 5824 5822 5820 5819 5818 5818 5818 5819 5821 5823 5826 5829 5833 5837 5841 5844 5847 5850 5853 5855 5858 5859
5836 5838 5840 5841 5843 5845 5845 5847 5848 5847 5847 5847 5845 5844 5843 5839 5836 5834 5833 5831 5828 5826 5824 5822 5821 5819 5819 5818 5818 5819 5821 5823 5826 5828 5832 5836 5839 5842 5845 5848 5851 5853 5855 5857
5832 5834 5836 5837 5839 5841 5842 5843 5844 5844 5844 5844 5843 5843 5841 5838 5836 5834 5832 5830 5828 5827 5825 5823 5821 5820 5820 5819 5819 5819 5820 5823 5825 5828 5831 5834 5838 5841 5843 5846 5848 5851 5853 5855
5828 5831 5832 5833 5835 5836 5838 5840 5840 5841 5840 5840 5841 5840 5840 5837 5835 5833 5831 5830 5828 5827 5825 5823 5822 5821 5821 5820 5819 5819 5821 5823 5825 5828 5830 5833 5836 5839 5841 5844 5846 5848 5850 5852
5823 5826 5829 5830 5831 5833 5834 5836 5836 5836 5837 5837 5837 5840 5838 5836 5834 5833 5831 5829 5828 5827 5825 5824 5822 5822 5821 5821 5820 5820 5821 5823 5825 5827 5829 5832 5834 5837 5839 5841 5843 5845 5847 5849
5818 5821 5823 5826 5827 5828 5829 5830 5832 5833 5833 5833 5834 5838 5835 5834 5832 5831 5830 5828 5827 5826 5825 5823 5822 5822 5822 5822 5822 5822 5822 5823 5825 5827 5829 5831 5833 5835 5837 5839 5840 5842 5844 5845
5813 5815 5818 5820 5824 5824 5824 5826 5827 5828 5829 5829 5830 5834 5832 5831 5830 5829 5828 5827 5826 5825 5824 5823 5822 5821 5821 5821 5822 5822 5822 5823 5824 5826 5827 5829 5831 5832 5834 5836 5837 5838 5840 5841
5806 5808 5811 5814 5816 5818 5819 5821 5822 5823 5823 5824 5826 5828 5828 5828 5827 5827 5826 5825 5824 5824 5823 5822 5821 5821 5821 5821 5821 5821 5821 5822 5823 5824 5826 5827 5828 5830 5831 5832 5833 5835 5836 5836
5799 5800 5802 5805 5807 5809 5811 5814 5815 5816 5818 5819 5821 5822 5824 5824 5824 5824 5823 5822 5822 5821 5820 5820 5819 5819 5819 5819 5819 5820 5820 5820 5821 5822 5823 5824 5825 5826 5827 5828 5829 5830 5831 5831
5791 5792 5794 5796 5798 5799 5802 5805 5807 5809 5811 5812 5814 5817 5818 5819 5820 5820 5820 5819 5819 5818 5818 5817 5817 5817 5817 5817 5817 5817 5818 5818 5818 5819 5820 5821 5822 5822 5823 5824 5824 5825 5825 5825
5783 5784 5785 5787 5789 5789 5791 5797 5799 5801 5803 5806 5807 5811 5812 5813 5814 5815 5815 5815 5815 5815 5814 5814 5814 5814 5814 5814 5814 5814 5814 5815 5815 5816 5816 5816 5817 5818 5818 5819 5820 5820 5819 5819
5773 5774 5775 5776 5779 5778 5785 5787 5790 5792 5795 5797 5799 5802 5805 5806 5808 5809 5810 5811 5811 5810 5810 5810 5810 5810 5810 5810 5810 5811 5811 5811 5811 5811 5812 5812 5813 5814 5814 5814 5814 5813 5813 5812
5763 5765 5765 5766 5767 5768 5773 5777 5780 5783 5785 5788 5791 5794 5796 5799 5801 5802 5804 5805 5805 5805 5805 5805 5805 5805 5805 5805 5806 5806 5806 5806 5806 5807 5807 5808 5808 5808 5808 5808 5807 5807 5806 5805
5754 5755 5756 5756 5757 5758 5765 5768 5770 5773 5774 5780 5782 5785 5788 5790 5793 5796 5796 5797 5798 5798 5799 5799 5799 5800 5800 5800 5801 5801 5801 5801 5802 5802 5802 5802 5802 5802 5802 5801 5800 5799 5798 5796
5745 5745 5746 5747 5747 5749 5754 5757 5761 5764 5767 5771 5773 5776 5779 5782 5785 5787 5788 5789 5790 5791 5792 5792 5793 5793 5794 5795 5795 5796 5795 5795 5796 5797 5797 5796 5796 5795 5795 5794 5792 5791 5789 5788
5737 5738 5738 5739 5740 5744 5745 5748 5751 5754 5756 5760 5763 5766 5769 5772 5775 5777 5779 5781 5782 5783 5784 5785 5785 5786 5787 5788 5789 5790 5790 5790 5790 5790 5790 5789 5789 5788 5787 5785 5784 5782 5780 5778
5730 5731 5731 5732 5734 5735 5736 5738 5741 5744 5747 5750 5753 5757 5760 5763 5765 5768 5770 5772 5774 5775 5776 5777 5778 5779 5780 5781 5782 5783 5783 5783 5782 5782 5782 5782 5781 5779 5778 5776 5774 5772 5770 5768
5723 5723 5724 5724 5726 5726 5728 5730 5732 5735 5738 5741 5745 5748 5751 5754 5756 5759 5761 5763 5765 5767 5768 5770 5771 5772 5773 5774 5775 5776 5776 5776 5775 5775 5774 5773 5771 5770 5768 5766 5764 5762 5759 5757
5718 5718 5718 5718 5719 5720 5722 5723 5725 5727 5730 5733 5737 5740 5743 5747 5749 5751 5753 5755 5757 5759 5761 5763 5764 5765 5767 5767 5768 5768 5769 5769 5768 5767 5766 5764 5762 5760 5758 5755 5753 5751 5748 5745
5712 5713 5713 5713 5714 5715 5717 5718 5719 5721 5724 5728 5731 5734 5737 5739 5742 5745 5746 5748 5750 5752 5753 5755 5757 5759 5760 5761 5761 5761 5761 5760 5760 5758 5757 5755 5752 5750 5748 5745 5742 5739 5736 5733